QPF
0.04 0.03 0.02 0.03 0.03 0.04 0.05 0.06 0.05 0.05 0.05 0.04 0.04 0.03 0.03 0.03 0.02 0.01 0.02 0.03 0.03 0.03 0.03 0.02 0.02 0.03 0.03 0.04 0.03 0.02 0.01 0.01 0.01 0.01 0.01 0.01 0.01 0.02 0.02 0.01 0.01 0.01 0.00
0.04 0.02 0.02 0.03 0.05 0.05 0.05 0.05 0.05 0.05 0.05 0.04 0.04 0.03 0.02 0.02 0.02 0.01 0.01 0.01 0.03 0.03 0.03 0.02 0.02 0.02 0.03 0.03 0.04 0.03 0.02 0.01 0.01 0.01 0.01 0.01 0.02 0.02 0.02 0.02 0.01 0.01 0.00
0.03 0.03 0.02 0.03 0.05 0.05 0.05 0.05 0.06 0.05 0.04 0.04 0.03 0.03 0.02 0.02 0.01 0.01 0.01 0.01 0.02 0.03 0.03 0.03 0.02 0.02 0.02 0.03 0.04 0.04 0.03 0.02 0.01 0.01 0.02 0.02 0.02 0.03 0.03 0.03 0.02 0.01 0.01
0.03 0.02 0.03 0.02 0.03 0.04 0.04 0.05 0.05 0.06 0.05 0.04 0.04 0.03 0.03 0.02 0.02 0.02 0.02 0.02 0.02 0.02 0.03 0.03 0.02 0.01 0.01 0.02 0.03 0.03 0.03 0.01 0.01 0.01 0.01 0.01 0.02 0.02 0.03 0.03 0.03 0.02 0.02
0.03 0.03 0.02 0.02 0.02 0.03 0.04 0.05 0.05 0.05 0.05 0.04 0.04 0.03 0.02 0.02 0.01 0.01 0.01 0.02 0.03 0.03 0.03 0.03 0.03 0.03 0.02 0.01 0.02 0.02 0.02 0.02 0.01 0.01 0.01 0.01 0.01 0.01 0.01 0.01 0.02 0.03 0.02
0.01 0.02 0.02 0.01 0.01 0.01 0.02 0.02 0.02 0.03 0.03 0.03 0.02 0.02 0.02 0.02 0.02 0.02 0.01 0.01 0.01 0.02 0.03 0.03 0.03 0.03 0.03 0.02 0.02 0.02 0.02 0.01 0.01 0.01 0.01 0.01 0.01 0.01 0.01 0.01 0.01 0.01 0.01
0.01 0.01 0.02 0.02 0.01 0.01 0.01 0.01 0.01 0.01 0.01 0.01 0.01 0.01 0.01 0.01 0.02 0.02 0.01 0.01 0.01 0.01 0.02 0.03 0.03 0.03 0.03 0.02 0.02 0.02 0.02 0.01 0.01 0.01 0.01 0.01 0.01 0.01 0.01 0.01 0.01 0.01 0.00
0.00 0.01 0.01 0.01 0.01 0.01 0.01 0.01 0.00 0.00 0.00 0.00 0.00 0.01 0.01 0.01 0.02 0.02 0.01 0.01 0.02 0.01 0.02 0.02 0.03 0.03 0.02 0.02 0.02 0.01 0.02 0.01 0.01 0.01 0.01 0.01 0.01 0.01 0.01 0.01 0.01 0.01 0.01
0.00 0.00 0.00 0.01 0.01 0.01 0.01 0.01 0.01 0.01 0.01 0.00 0.00 0.00 0.01 0.01 0.01 0.02 0.02 0.01 0.01 0.02 0.02 0.02 0.02 0.02 0.03 0.02 0.02 0.02 0.01 0.01 0.01 0.01 0.01 0.01 0.01 0.01 0.01 0.01 0.02 0.02 0.01
0.00 0.00 0.00 0.00 0.00 0.01 0.01 0.01 0.02 0.02 0.01 0.01 0.01 0.01 0.01 0.01 0.01 0.01 0.02 0.01 0.01 0.01 0.02 0.02 0.02 0.02 0.02 0.02 0.01 0.01 0.01 0.01 0.01 0.01 0.01 0.01 0.01 0.01 0.01 0.01 0.01 0.01 0.01
0.00 0.00 0.00 0.00 0.00 0.01 0.01 0.01 0.01 0.01 0.01 0.01 0.01 0.01 0.01 0.02 0.02 0.02 0.02 0.02 0.01 0.01 0.02 0.02 0.02 0.02 0.02 0.02 0.02 0.01 0.01 0.01 0.01 0.00 0.00 0.00 0.00 0.00 0.00 0.00 0.00 0.01 0.01
0.00 0.00 0.00 0.01 0.01 0.01 0.01 0.01 0.01 0.01 0.02 0.02 0.02 0.02 0.02 0.02 0.02 0.02 0.02 0.01 0.01 0.01 0.01 0.01 0.01 0.02 0.02 0.02 0.02 0.01 0.01 0.01 0.00 0.00 0.00 0.00 0.00 0.00 0.00 0.00 0.00 0.00 0.01
0.00 0.00 0.00 0.00 0.01 0.01 0.01 0.01 0.01 0.01 0.01 0.01 0.01 0.02 0.02 0.02 0.02 0.02 0.02 0.02 0.02 0.02 0.01 0.01 0.01 0.02 0.02 0.02 0.01 0.01 0.01 0.01 0.01 0.00 0.00 0.00 0.00 0.00 0.00 0.00 0.00 0.00 0.01
0.00 0.00 0.00 0.00 0.00 0.00 0.01 0.01 0.01 0.01 0.01 0.01 0.01 0.01 0.01 0.01 0.02 0.02 0.02 0.02 0.02 0.02 0.01 0.02 0.02 0.02 0.02 0.02 0.01 0.01 0.01 0.01 0.01 0.01 0.01 0.01 0.01 0.01 0.01 0.01 0.01 0.01 0.01
0.00 0.00 0.00 0.00 0.00 0.00 0.00 0.00 0.01 0.01 0.01 0.01 0.01 0.01 0.01 0.01 0.01 0.02 0.02 0.02 0.02 0.02 0.02 0.02 0.02 0.02 0.02 0.02 0.02 0.01 0.01 0.01 0.01 0.00 0.01 0.01 0.00 0.01 0.01 0.00 0.01 0.01 0.01
0.01 0.00 0.00 0.00 0.01 0.01 0.01 0.01 0.00 0.01 0.01 0.01 0.01 0.01 0.01 0.01 0.01 0.02 0.02 0.02 0.02 0.02 0.02 0.02 0.02 0.02 0.02 0.02 0.02 0.01 0.01 0.01 0.01 0.01 0.01 0.00 0.00 0.00 0.00 0.00 0.00 0.01 0.01
0.01 0.01 0.01 0.01 0.01 0.01 0.01 0.01 0.00 0.00 0.00 0.00 0.01 0.01 0.01 0.01 0.02 0.02 0.02 0.02 0.02 0.02 0.01 0.01 0.01 0.01 0.02 0.02 0.01 0.01 0.01 0.01 0.01 0.01 0.01 0.01 0.01 0.01 0.01 0.01 0.01 0.01 0.01
0.01 0.01 0.01 0.01 0.01 0.01 0.01 0.01 0.01 0.00 0.00 0.00 0.01 0.01 0.01 0.02 0.02 0.02 0.02 0.02 0.02 0.02 0.01 0.01 0.01 0.01 0.02 0.02 0.02 0.02 0.02 0.01 0.01 0.01 0.01 0.01 0.01 0.01 0.01 0.01 0.01 0.01 0.01
0.01 0.01 0.01 0.01 0.01 0.01 0.01 0.01 0.00 0.00 0.00 0.01 0.01 0.01 0.01 0.01 0.01 0.01 0.01 0.02 0.02 0.02 0.02 0.02 0.02 0.02 0.02 0.02 0.02 0.02 0.02 0.01 0.01 0.01 0.01 0.01 0.01 0.01 0.01 0.01 0.01 0.02 0.02
0.01 0.01 0.01 0.01 0.01 0.01 0.01 0.01 0.01 0.01 0.01 0.01 0.01 0.01 0.01 0.01 0.01 0.01 0.01 0.02 0.02 0.02 0.03 0.03 0.03 0.02 0.02 0.02 0.02 0.02 0.02 0.02 0.02 0.01 0.01 0.01 0.02 0.02 0.02 0.02 0.02 0.02 0.02
0.01 0.01 0.01 0.01 0.01 0.01 0.01 0.01 0.01 0.01 0.02 0.02 0.02 0.02 0.02 0.02 0.02 0.02 0.02 0.02 0.02 0.02 0.02 0.02 0.03 0.03 0.03 0.03 0.02 0.02 0.02 0.02 0.02 0.02 0.02 0.02 0.02 0.02 0.02 0.02 0.02 0.01 0.02
0.01 0.01 0.01 0.01 0.01 0.01 0.02 0.02 0.02 0.03 0.03 0.03 0.03 0.03 0.02 0.02 0.02 0.02 0.02 0.02 0.02 0.02 0.02 0.02 0.02 0.02 0.02 0.02 0.02 0.02 0.02 0.01 0.01 0.01 0.02 0.02 0.02 0.02 0.01 0.01 0.01 0.01 0.02
0.01 0.01 0.01 0.01 0.01 0.01 0.01 0.02 0.02 0.02 0.02 0.03 0.03 0.02 0.02 0.02 0.02 0.02 0.02 0.02 0.01 0.01 0.01 0.02 0.02 0.01 0.01 0.01 0.01 0.02 0.01 0.01 0.01 0.01 0.02 0.02 0.02 0.02 0.02 0.02 0.02 0.02 0.02
0.01 0.01 0.01 0.01 0.01 0.01 0.01 0.01 0.01 0.02 0.02 0.01 0.02 0.01 0.01 0.01 0.01 0.01 0.01 0.01 0.01 0.01 0.01 0.01 0.01 0.01 0.01 0.01 0.01 0.01 0.01 0.01 0.01 0.02 0.02 0.02 0.02 0.02 0.02 0.02 0.02 0.02 0.02
0.01 0.01 0.01 0.01 0.01 0.01 0.01 0.01 0.01 0.01 0.01 0.01 0.01 0.01 0.01 0.01 0.01 0.01 0.01 0.01 0.01 0.01 0.01 0.01 0.01 0.01 0.01 0.01 0.01 0.01 0.01 0.02 0.02 0.02 0.03 0.03 0.03 0.02 0.02 0.02 0.02 0.02 0.02
0.01 0.01 0.01 0.00 0.01 0.01 0.01 0.01 0.01 0.01 0.01 0.01 0.01 0.01 0.01 0.01 0.01 0.01 0.01 0.01 0.01 0.01 0.01 0.01 0.01 0.01 0.01 0.01 0.01 0.01 0.01 0.02 0.02 0.03 0.03 0.04 0.03 0.02 0.02 0.03 0.02 0.02 0.02
MSLP
1011.80 1011.91 1012.12 1012.43 1012.79 1013.21 1013.65 1014.11 1014.59 1015.08 1015.58 1016.09 1016.60 1017.11 1017.62 1018.11 1018.58 1019.01 1019.42 1019.78 1020.11 1020.41 1020.69 1020.95 1021.20 1021.46 1021.74 1022.06 1022.40 1022.79 1023.22 1023.66 1024.11 1024.53 1024.91 1025.21 1025.42 1025.53 1025.54 1025.47 1025.34 1025.18 1025.02
1011.83 1011.87 1012.02 1012.26 1012.57 1012.94 1013.33 1013.75 1014.19 1014.65 1015.12 1015.62 1016.13 1016.66 1017.19 1017.73 1018.25 1018.75 1019.23 1019.66 1020.05 1020.39 1020.69 1020.97 1021.22 1021.48 1021.75 1022.05 1022.39 1022.78 1023.21 1023.67 1024.13 1024.57 1024.96 1025.27 1025.48 1025.58 1025.59 1025.50 1025.36 1025.19 1025.01
1011.92 1011.91 1011.99 1012.17 1012.41 1012.70 1013.03 1013.39 1013.78 1014.19 1014.63 1015.10 1015.60 1016.13 1016.68 1017.25 1017.82 1018.37 1018.90 1019.39 1019.83 1020.23 1020.57 1020.87 1021.15 1021.41 1021.69 1022.00 1022.35 1022.75 1023.19 1023.67 1024.15 1024.60 1025.00 1025.31 1025.52 1025.62 1025.61 1025.52 1025.36 1025.17 1024.97
1012.06 1011.99 1012.01 1012.11 1012.27 1012.49 1012.75 1013.04 1013.36 1013.72 1014.12 1014.55 1015.04 1015.56 1016.12 1016.70 1017.30 1017.89 1018.46 1018.99 1019.48 1019.92 1020.30 1020.64 1020.95 1021.25 1021.56 1021.89 1022.26 1022.68 1023.15 1023.63 1024.12 1024.58 1024.98 1025.29 1025.50 1025.59 1025.58 1025.47 1025.31 1025.10 1024.89
1012.23 1012.10 1012.05 1012.08 1012.16 1012.29 1012.47 1012.69 1012.95 1013.26 1013.61 1014.02 1014.48 1014.99 1015.54 1016.13 1016.73 1017.34 1017.94 1018.50 1019.02 1019.50 1019.92 1020.31 1020.66 1021.00 1021.34 1021.71 1022.11 1022.56 1023.03 1023.53 1024.02 1024.48 1024.87 1025.17 1025.37 1025.46 1025.44 1025.33 1025.16 1024.95 1024.72
1012.40 1012.22 1012.10 1012.05 1012.05 1012.10 1012.20 1012.36 1012.56 1012.83 1013.15 1013.53 1013.97 1014.47 1015.01 1015.59 1016.19 1016.79 1017.39 1017.97 1018.51 1019.01 1019.47 1019.90 1020.29 1020.68 1021.07 1021.47 1021.91 1022.37 1022.85 1023.35 1023.83 1024.27 1024.64 1024.93 1025.12 1025.20 1025.18 1025.07 1024.91 1024.70 1024.48
1012.57 1012.33 1012.15 1012.02 1011.94 1011.92 1011.95 1012.06 1012.22 1012.45 1012.75 1013.12 1013.55 1014.03 1014.56 1015.12 1015.71 1016.30 1016.88 1017.45 1018.00 1018.52 1019.00 1019.46 1019.90 1020.33 1020.75 1021.19 1021.65 1022.12 1022.60 1023.08 1023.53 1023.95 1024.29 1024.56 1024.73 1024.80 1024.79 1024.70 1024.55 1024.36 1024.15
1012.71 1012.42 1012.17 1011.97 1011.83 1011.74 1011.73 1011.80 1011.94 1012.16 1012.45 1012.81 1013.23 1013.71 1014.22 1014.76 1015.31 1015.88 1016.44 1017.00 1017.54 1018.06 1018.57 1019.05 1019.52 1019.98 1020.44 1020.90 1021.36 1021.83 1022.29 1022.74 1023.15 1023.53 1023.84 1024.07 1024.23 1024.31 1024.30 1024.23 1024.11 1023.95 1023.76
1012.81 1012.47 1012.16 1011.91 1011.71 1011.58 1011.54 1011.58 1011.71 1011.92 1012.22 1012.58 1013.00 1013.46 1013.96 1014.47 1015.00 1015.53 1016.07 1016.60 1017.13 1017.66 1018.18 1018.68 1019.18 1019.67 1020.15 1020.62 1021.08 1021.52 1021.95 1022.36 1022.73 1023.05 1023.32 1023.53 1023.67 1023.75 1023.76 1023.72 1023.63 1023.51 1023.35
1012.86 1012.47 1012.13 1011.82 1011.58 1011.42 1011.36 1011.39 1011.51 1011.73 1012.03 1012.39 1012.80 1013.25 1013.73 1014.22 1014.71 1015.22 1015.73 1016.25 1016.78 1017.31 1017.83 1018.36 1018.88 1019.39 1019.88 1020.35 1020.80 1021.22 1021.61 1021.97 1022.29 1022.57 1022.79 1022.98 1023.10 1023.18 1023.21 1023.20 1023.15 1023.06 1022.93
1012.85 1012.44 1012.05 1011.71 1011.44 1011.26 1011.18 1011.20 1011.32 1011.53 1011.83 1012.19 1012.59 1013.02 1013.47 1013.94 1014.41 1014.89 1015.39 1015.90 1016.42 1016.96 1017.51 1018.07 1018.61 1019.14 1019.64 1020.11 1020.55 1020.95 1021.30 1021.61 1021.89 1022.12 1022.31 1022.47 1022.59 1022.67 1022.71 1022.72 1022.69 1022.63 1022.53
1012.80 1012.35 1011.94 1011.57 1011.28 1011.07 1010.98 1010.98 1011.09 1011.29 1011.58 1011.91 1012.30 1012.71 1013.13 1013.58 1014.03 1014.50 1014.99 1015.51 1016.05 1016.61 1017.19 1017.77 1018.35 1018.90 1019.42 1019.89 1020.32 1020.70 1021.03 1021.31 1021.54 1021.75 1021.91 1022.05 1022.16 1022.24 1022.29 1022.31 1022.29 1022.24 1022.15
1012.69 1012.22 1011.78 1011.39 1011.08 1010.85 1010.73 1010.72 1010.81 1010.98 1011.24 1011.55 1011.90 1012.28 1012.68 1013.10 1013.54 1014.01 1014.51 1015.05 1015.62 1016.22 1016.83 1017.46 1018.07 1018.65 1019.19 1019.68 1020.11 1020.48 1020.79 1021.06 1021.27 1021.46 1021.61 1021.74 1021.84 1021.91 1021.96 1021.98 1021.96 1021.90 1021.79
1012.52 1012.03 1011.57 1011.16 1010.82 1010.58 1010.43 1010.39 1010.44 1010.59 1010.80 1011.07 1011.39 1011.73 1012.11 1012.52 1012.95 1013.43 1013.96 1014.52 1015.13 1015.78 1016.45 1017.11 1017.77 1018.39 1018.96 1019.47 1019.91 1020.29 1020.61 1020.87 1021.08 1021.26 1021.40 1021.53 1021.62 1021.69 1021.73 1021.72 1021.68 1021.59 1021.45
1012.28 1011.76 1011.28 1010.86 1010.50 1010.23 1010.06 1009.99 1010.00 1010.10 1010.27 1010.50 1010.78 1011.10 1011.45 1011.85 1012.30 1012.80 1013.35 1013.96 1014.63 1015.32 1016.04 1016.76 1017.46 1018.12 1018.72 1019.26 1019.72 1020.11 1020.44 1020.71 1020.94 1021.12 1021.27 1021.39 1021.49 1021.54 1021.56 1021.53 1021.45 1021.31 1021.12
1011.95 1011.41 1010.91 1010.47 1010.10 1009.82 1009.62 1009.51 1009.50 1009.56 1009.69 1009.88 1010.12 1010.42 1010.77 1011.17 1011.64 1012.17 1012.76 1013.42 1014.13 1014.88 1015.65 1016.41 1017.15 1017.84 1018.47 1019.03 1019.52 1019.94 1020.28 1020.58 1020.82 1021.02 1021.18 1021.30 1021.39 1021.43 1021.43 1021.36 1021.24 1021.05 1020.81
1011.51 1010.96 1010.45 1010.00 1009.62 1009.32 1009.11 1008.99 1008.95 1008.98 1009.08 1009.25 1009.48 1009.77 1010.12 1010.54 1011.04 1011.60 1012.24 1012.95 1013.70 1014.50 1015.30 1016.10 1016.86 1017.58 1018.23 1018.81 1019.31 1019.75 1020.11 1020.42 1020.68 1020.90 1021.07 1021.21 1021.29 1021.32 1021.29 1021.20 1021.03 1020.81 1020.52
1010.98 1010.41 1009.89 1009.44 1009.07 1008.77 1008.57 1008.44 1008.39 1008.41 1008.51 1008.67 1008.90 1009.20 1009.57 1010.02 1010.55 1011.15 1011.83 1012.58 1013.37 1014.19 1015.02 1015.84 1016.62 1017.34 1018.00 1018.58 1019.09 1019.53 1019.91 1020.23 1020.51 1020.74 1020.92 1021.06 1021.14 1021.16 1021.12 1021.00 1020.82 1020.56 1020.24
1010.36 1009.78 1009.27 1008.83 1008.48 1008.20 1008.01 1007.90 1007.86 1007.90 1008.00 1008.18 1008.43 1008.75 1009.15 1009.63 1010.20 1010.84 1011.56 1012.34 1013.15 1013.99 1014.83 1015.64 1016.41 1017.12 1017.77 1018.34 1018.84 1019.28 1019.66 1019.99 1020.26 1020.50 1020.69 1020.83 1020.91 1020.93 1020.88 1020.75 1020.56 1020.29 1019.97
1009.70 1009.14 1008.64 1008.23 1007.91 1007.67 1007.51 1007.43 1007.42 1007.48 1007.61 1007.82 1008.10 1008.45 1008.89 1009.41 1010.01 1010.68 1011.43 1012.22 1013.04 1013.88 1014.70 1015.50 1016.24 1016.93 1017.54 1018.09 1018.57 1018.98 1019.35 1019.66 1019.94 1020.17 1020.35 1020.49 1020.57 1020.59 1020.55 1020.43 1020.24 1019.99 1019.69
1009.09 1008.55 1008.08 1007.71 1007.43 1007.23 1007.12 1007.08 1007.11 1007.21 1007.38 1007.61 1007.93 1008.32 1008.79 1009.34 1009.96 1010.66 1011.41 1012.20 1013.02 1013.84 1014.63 1015.39 1016.09 1016.73 1017.31 1017.81 1018.25 1018.64 1018.98 1019.27 1019.52 1019.74 1019.92 1020.05 1020.13 1020.15 1020.11 1020.01 1019.85 1019.63 1019.36
1008.62 1008.10 1007.68 1007.35 1007.12 1006.98 1006.91 1006.91 1006.98 1007.11 1007.32 1007.59 1007.93 1008.34 1008.83 1009.40 1010.04 1010.74 1011.49 1012.27 1013.06 1013.84 1014.59 1015.30 1015.95 1016.54 1017.06 1017.51 1017.91 1018.25 1018.55 1018.81 1019.04 1019.23 1019.39 1019.51 1019.59 1019.61 1019.59 1019.51 1019.37 1019.19 1018.97
1008.36 1007.88 1007.51 1007.23 1007.05 1006.95 1006.92 1006.96 1007.07 1007.23 1007.45 1007.74 1008.10 1008.53 1009.03 1009.59 1010.23 1010.91 1011.63 1012.38 1013.13 1013.86 1014.56 1015.21 1015.80 1016.33 1016.79 1017.19 1017.53 1017.83 1018.09 1018.31 1018.50 1018.67 1018.80 1018.90 1018.96 1018.99 1018.97 1018.91 1018.80 1018.66 1018.48
1008.36 1007.93 1007.60 1007.38 1007.24 1007.17 1007.18 1007.25 1007.37 1007.55 1007.78 1008.07 1008.43 1008.85 1009.34 1009.89 1010.49 1011.14 1011.82 1012.52 1013.21 1013.89 1014.52 1015.11 1015.64 1016.10 1016.51 1016.85 1017.14 1017.39 1017.60 1017.78 1017.94 1018.07 1018.17 1018.25 1018.29 1018.31 1018.29 1018.24 1018.15 1018.04 1017.90
1008.61 1008.23 1007.95 1007.77 1007.66 1007.63 1007.65 1007.73 1007.86 1008.04 1008.26 1008.54 1008.88 1009.28 1009.74 1010.25 1010.82 1011.42 1012.05 1012.68 1013.31 1013.92 1014.48 1015.00 1015.47 1015.87 1016.21 1016.51 1016.75 1016.95 1017.11 1017.25 1017.37 1017.46 1017.53 1017.58 1017.60 1017.60 1017.57 1017.52 1017.45 1017.35 1017.24
1009.06 1008.73 1008.49 1008.34 1008.25 1008.23 1008.27 1008.35 1008.47 1008.64 1008.85 1009.10 1009.41 1009.78 1010.20 1010.66 1011.18 1011.72 1012.28 1012.85 1013.41 1013.95 1014.44 1014.89 1015.29 1015.63 1015.92 1016.16 1016.35 1016.51 1016.63 1016.73 1016.81 1016.86 1016.90 1016.91 1016.91 1016.88 1016.84 1016.78 1016.70 1016.61 1016.51
Thickness
5532 5532 5532 5532 5533 5533 5532 5532 5532 5532 5532 5532 5532 5532 5532 5531 5531 5530 5529 5528 5527 5526 5524 5522 5520 5519 5517 5515 5513 5511 5508 5506 5502 5499 5497 5496 5493 5491 5488 5486 5485 5483 5480
5525 5524 5524 5524 5524 5524 5524 5524 5524 5524 5524 5524 5524 5524 5524 5524 5522 5521 5520 5519 5518 5516 5514 5512 5510 5508 5506 5504 5501 5500 5498 5495 5491 5487 5484 5482 5480 5478 5476 5474 5472 5470 5468
5517 5516 5516 5516 5516 5516 5516 5517 5517 5517 5517 5516 5515 5515 5516 5516 5514 5513 5512 5510 5508 5506 5504 5502 5501 5498 5495 5493 5491 5489 5486 5484 5480 5476 5473 5470 5467 5465 5463 5461 5459 5457 5455
5509 5508 5508 5508 5508 5508 5508 5509 5509 5508 5508 5508 5507 5507 5507 5507 5505 5504 5502 5500 5498 5496 5494 5492 5491 5488 5486 5483 5480 5477 5474 5470 5467 5464 5461 5457 5454 5452 5450 5448 5446 5444 5441
5500 5499 5499 5499 5499 5499 5500 5500 5500 5499 5499 5499 5499 5498 5497 5496 5495 5494 5492 5490 5487 5484 5482 5481 5480 5478 5476 5474 5471 5467 5463 5459 5455 5451 5448 5445 5442 5439 5436 5434 5432 5430 5428
5491 5491 5491 5490 5490 5490 5490 5490 5490 5489 5488 5488 5489 5488 5487 5486 5485 5484 5482 5479 5476 5474 5471 5469 5468 5466 5465 5463 5461 5458 5453 5449 5444 5441 5437 5434 5431 5428 5425 5422 5418 5416 5415
5481 5481 5481 5481 5481 5481 5481 5480 5480 5479 5478 5478 5477 5476 5475 5474 5474 5472 5470 5468 5466 5463 5460 5458 5456 5455 5453 5450 5448 5446 5442 5439 5437 5433 5428 5425 5421 5418 5413 5409 5406 5404 5403
5472 5472 5472 5471 5471 5471 5471 5470 5469 5468 5468 5467 5466 5465 5464 5463 5463 5461 5460 5457 5455 5453 5450 5447 5445 5442 5440 5438 5435 5432 5429 5427 5425 5422 5419 5415 5411 5407 5403 5400 5396 5393 5391
5463 5463 5463 5463 5462 5462 5461 5460 5458 5458 5457 5456 5455 5454 5453 5452 5452 5450 5448 5445 5443 5441 5438 5436 5433 5431 5429 5427 5423 5420 5417 5414 5412 5410 5407 5404 5400 5396 5391 5386 5382 5378 5378
5454 5453 5453 5452 5452 5451 5450 5448 5447 5446 5446 5445 5443 5442 5441 5440 5440 5439 5437 5434 5431 5428 5426 5424 5422 5420 5417 5414 5411 5408 5405 5403 5400 5397 5394 5391 5387 5384 5379 5375 5370 5365 5362
5443 5443 5442 5442 5441 5440 5438 5437 5435 5434 5433 5431 5430 5429 5428 5428 5428 5427 5425 5422 5420 5416 5414 5411 5409 5408 5405 5403 5400 5398 5396 5392 5388 5385 5382 5378 5375 5371 5367 5363 5359 5354 5350
5433 5432 5431 5431 5430 5428 5426 5424 5422 5421 5419 5418 5416 5416 5415 5415 5415 5414 5413 5411 5408 5405 5403 5401 5398 5396 5394 5392 5389 5387 5384 5380 5376 5372 5368 5366 5362 5358 5355 5351 5347 5343 5339
5422 5421 5420 5419 5417 5416 5414 5412 5410 5408 5406 5405 5404 5403 5402 5402 5401 5401 5400 5398 5396 5393 5391 5389 5387 5385 5382 5380 5377 5374 5371 5367 5363 5359 5356 5353 5350 5347 5342 5338 5334 5331 5327
5409 5408 5407 5406 5404 5403 5401 5400 5398 5396 5394 5393 5392 5390 5389 5388 5387 5386 5386 5384 5383 5381 5379 5377 5375 5372 5370 5367 5365 5361 5358 5355 5351 5348 5344 5341 5337 5333 5330 5325 5321 5318 5314
5395 5394 5393 5392 5390 5389 5388 5387 5386 5385 5383 5382 5380 5378 5377 5376 5376 5376 5374 5372 5370 5368 5365 5363 5360 5357 5355 5353 5350 5347 5345 5342 5339 5335 5331 5328 5325 5321 5317 5312 5308 5304 5301
5382 5381 5380 5378 5377 5375 5373 5373 5373 5372 5372 5371 5369 5367 5366 5366 5365 5364 5362 5361 5359 5357 5353 5350 5347 5344 5342 5340 5337 5335 5332 5329 5326 5323 5319 5315 5312 5308 5304 5300 5296 5292 5290
5368 5367 5366 5365 5363 5361 5360 5359 5359 5360 5359 5358 5357 5355 5354 5353 5353 5351 5350 5349 5347 5345 5340 5338 5335 5333 5330 5328 5325 5322 5320 5317 5314 5310 5307 5303 5299 5296 5292 5289 5286 5283 5280
5354 5354 5353 5351 5350 5348 5347 5346 5345 5345 5344 5343 5343 5342 5341 5341 5340 5338 5337 5335 5333 5330 5328 5325 5323 5320 5318 5315 5313 5310 5308 5305 5302 5299 5295 5292 5288 5285 5282 5279 5276 5274 5272
5341 5340 5339 5338 5337 5336 5335 5334 5333 5331 5330 5329 5329 5329 5328 5327 5326 5324 5323 5320 5318 5316 5315 5312 5310 5308 5306 5304 5301 5299 5296 5294 5291 5287 5285 5282 5279 5276 5273 5271 5268 5267 5264
5328 5328 5327 5326 5325 5323 5322 5321 5320 5318 5317 5316 5315 5314 5313 5312 5310 5309 5307 5305 5304 5303 5302 5301 5299 5297 5295 5293 5290 5288 5285 5283 5280 5277 5275 5273 5271 5268 5266 5263 5261 5258 5256
5315 5314 5315 5313 5312 5311 5310 5308 5307 5306 5304 5303 5302 5301 5301 5298 5296 5295 5293 5292 5292 5291 5290 5289 5288 5286 5284 5282 5280 5277 5275 5273 5271 5269 5267 5265 5263 5260 5258 5256 5254 5251 5249
5301 5301 5300 5300 5299 5298 5297 5296 5294 5293 5292 5290 5289 5288 5288 5286 5284 5283 5282 5282 5281 5280 5279 5278 5277 5275 5274 5272 5270 5268 5266 5264 5262 5261 5259 5257 5255 5253 5251 5249 5247 5245 5243
5288 5288 5287 5287 5286 5286 5284 5283 5281 5280 5279 5278 5277 5276 5275 5274 5273 5272 5272 5271 5270 5269 5268 5267 5266 5265 5264 5262 5261 5259 5258 5257 5255 5254 5252 5250 5248 5246 5244 5243 5241 5240 5239
5275 5274 5274 5273 5273 5272 5271 5270 5269 5268 5267 5266 5266 5265 5264 5263 5262 5261 5261 5260 5260 5259 5258 5258 5257 5256 5255 5254 5253 5252 5251 5250 5248 5247 5245 5243 5242 5241 5239 5238 5237 5236 5235
5261 5261 5261 5261 5260 5260 5259 5259 5258 5257 5256 5256 5255 5255 5254 5253 5252 5252 5251 5251 5250 5250 5250 5249 5249 5248 5248 5247 5246 5245 5244 5243 5242 5241 5239 5238 5237 5236 5235 5234 5233 5232 5231
5249 5249 5249 5249 5249 5248 5248 5248 5247 5247 5246 5245 5245 5244 5244 5243 5243 5243 5242 5242 5242 5242 5242 5242 5242 5241 5241 5241 5240 5239 5238 5238 5237 5236 5235 5234 5233 5232 5231 5230 5230 5229 5228